Hourly Weather Roundup
Issued by NWS Central Illinois

Home | Current Version | Previous Version | Text Only | Print | Product List | Glossary On
Versions: 1 2 3 4 5 6 7 8 9 10 11 12 13 14 15 16 17 18 19 20 21 22 23 24 25 26 27 28 29 30 31 32 33 34 35 36 37 38 39 40 41 42 43 44 45 46 47 48 49 50
000
NZUS43 KILX 181210
HWRILX

AREA WEATHER ROUNDUP
NATIONAL WEATHER SERVICE, LINCOLN IL
600 AM CST WED JAN 18 2017


CITY           SKY/WX    TMP DP  RH WIND       PRES   REMARKS
BLOOMINGTON    CLOUDY    34  33  96 NW10      30.15S WCI  26
6HR MIN TEMP:  33; 6HR MAX TEMP:  35;

CHAMPAIGN      CLOUDY    36  33  89 NW15      30.16S WCI  27
6HR MIN TEMP:  36; 6HR MAX TEMP:  37;

DANVILLE       LGT RAIN  34  33  97 W10       30.13S WCI  26
6HR MIN TEMP:  34; 6HR MAX TEMP:  36;

DECATUR        CLOUDY    36  35  96 W8        30.17S WCI  30
6HR MIN TEMP:  36; 6HR MAX TEMP:  37;

EFFINGHAM      CLOUDY    37  37  99 W5        30.21R WCI  34
6HR MIN TEMP:  37; 6HR MAX TEMP:  39;

FLORA          CLOUDY    39  37  89 W7        30.22R WCI  34
6HR MIN TEMP:  39; 6HR MAX TEMP:  41;

GALESBURG      CLOUDY    32  31  94 W7        30.14S WCI  26
6HR MIN TEMP:  32; 6HR MAX TEMP:  35;

JACKSONVILLE   CLOUDY    33  30  89 W6        30.17S WCI  28
6HR MIN TEMP:  33; 6HR MAX TEMP:  38;

LACON          CLOUDY    34  34  98 W8        30.14S WCI  28
6HR MIN TEMP:  33; 6HR MAX TEMP:  34;

LAWRENCEVILLE  CLOUDY    39  37  92 W7        30.21R WCI  34
6HR MIN TEMP:  39; 6HR MAX TEMP:  41;

LITCHFIELD     CLOUDY    35  33  91 NW5       30.19R WCI  31
6HR MIN TEMP:  35; 6HR MAX TEMP:  37;

$$


CITY           SKY/WX    TMP DP  RH WIND       PRES   REMARKS
LINCOLN        CLOUDY    37  36  96 W5        30.17S WCI  33
6HR MIN TEMP:  37; 6HR MAX TEMP:  38;

MACOMB         CLOUDY    33  32  97 W5        30.17F WCI  28
6HR MIN TEMP:  32; 6HR MAX TEMP:  36;

MATTOON        CLOUDY    36  34  92 NW12      30.17R WCI  28
6HR MIN TEMP:  36; 6HR MAX TEMP:  37;

MT CARMEL AP   CLOUDY    39  35  87 W8        30.21R WCI  33
6HR MIN TEMP:  39; 6HR MAX TEMP:  40;

OLNEY-NOBLE AP CLOUDY    37  37 100 NW8       30.21R WCI  31
PARIS          CLOUDY    37  35  95 NW13      30.17S WCI  28
6HR MIN TEMP:  36; 6HR MAX TEMP:  37;

PEORIA         CLOUDY    36  34  92 W9        30.16R WCI  29
6HR MIN TEMP:  34; 6HR MAX TEMP:  36;

PONTIAC        CLOUDY    34  34 100 W14       30.15S FOG     WCI  25
6HR MIN TEMP:  34; 6HR MAX TEMP:  35;

RANTOUL        CLOUDY    36  35  95 NW12      30.15S WCI  28
6HR MIN TEMP:  36; 6HR MAX TEMP:  37;

SPRINGFIELD    CLOUDY    37  33  85 W6        30.17S WCI  32
6HR MIN TEMP:  37; 6HR MAX TEMP:  39;

TAYLORVILLE    CLOUDY    36  33  90 W9        30.19R WCI  29
6HR MIN TEMP:  36; 6HR MAX TEMP:  37;

$$

...REGIONAL REPORTS...


CITY           SKY/WX    TMP DP  RH WIND       PRES   REMARKS
CHICAGO O`HARE DRIZZLE   35  33  92 W10       30.09R FOG     WCI  27
KANKAKEE       CLOUDY    33  33  98 W12       30.14S WCI  25
MOLINE         CLOUDY    34  30  85 W9        30.12S WCI  27
MOUNT STERLING CLOUDY    33  30  91 W7        30.15F WCI  26
MOUNT VERNON   CLOUDY    39  34  82 CALM      30.22R
PITTSFIELD     CLOUDY    35  32  88 W6        30.19R WCI  30
QUINCY         CLOUDY    34  31  88 W7        30.17R WCI  28
ROCKFORD       DRIZZLE   33  31  92 W12       30.12S FOG     WCI  24
$$


CITY           SKY/WX    TMP DP  RH WIND       PRES   REMARKS
BURLINGTON     CLOUDY    31  30  96 SW5       30.13F WCI  26
CEDAR RAPIDS   CLOUDY    30  29  96 SW6       30.10S FOG     WCI  24
DES MOINES     FOG       31  30  96 SW10      30.09F VSB 1/2 WCI  22
KIRKSVILLE     CLOUDY    34  33  96 SW8       30.14R FOG     WCI  27
OTTUMWA        CLOUDY    32  29  88 SW6       30.10F WCI  26
ST LOUIS       CLOUDY    39  32  76 NW5       30.21R
$$


CITY           SKY/WX    TMP DP  RH WIND       PRES   REMARKS
TERRE HAUTE    CLOUDY    38  34  85 NW7       30.18R WCI  33
EVANSVILLE     CLOUDY    40  35  83 NW5       30.22R
INDIANAPOLIS   DRIZZLE   36  34  92 W12       30.15R WCI  28
LAFAYETTE      CLOUDY    34  33  96 W12       30.15R WCI  25
MADISON        CLOUDY    31  30  96 VRB5      30.07R WCI  26
MILWAUKEE      CLOUDY    36  33  89 W8        30.05R FOG     WCI  30
$$





USA.gov is the U.S. government's official web portal to all federal, state and local government web resources and services.